Location: Unspecified
(43.8044°N, 11.0278°E)
Time: 11:30:36
(UTC+02:00)

Okean 3 - Visible Passes

Search period start: 29 July 2015 00:00
Search period end: 08 August 2015 00:00
Orbit: 579 x 606 km, 82.5° (Epoch: 28 July)

Date Brightness Start Highest point End Pass type
(mag) Time Alt. Az. Time Alt. Az. Time Alt. Az.
29 Jul 3.9 21:14:17 10° NNW 21:18:33 66° W 21:22:48 10° S visible
30 Jul 4.8 21:23:27 10° NNW 21:27:32 43° W 21:31:35 10° SSW visible
31 Jul 5.6 21:32:46 10° NNW 21:36:29 28° W 21:40:09 10° SSW visible
01 Aug 6.2 21:42:17 10° NW 21:45:25 19° W 21:48:25 10° SW visible
02 Aug 6.5 21:52:14 10° WNW 21:54:18 13° W 21:56:10 10° WSW visible
07 Aug 6.4 20:59:18 10° NW 21:02:18 18° W 21:05:10 10° SW visible
